Date String (YYYY-MM-DD hh:mm:ss) UTC,Instrument flags,absolute air pressure of the measurement (hPa),sample flow rate (lpm),inlet stack bypass flow (lpm),air temperature of the measurement (°C),ambient temperature measured by the external sensor (°C),aerosol sample conditioner tube jacket temperature (°C),OPC LED temperature (°C),internal box temperature (°C),relative humidity of the measurement (%),span deviation,mass concentration of particles derived from Lorenz-Mie calculation of OPC scattering (μg/m³),mass concentration of particles derived from Lorenz-Mie calculation of OPC scattering (μg/m³),mass concentration of particles derived from Lorenz-Mie calculation of OPC scattering (μg/m³)
DateTimeUTC,F1_M11,P_M11,Q1_M11,Q2_M11,T1_M11,T2_M11,T3_M11,T4_M11,T5_M11,U1_M11,ZSPAN_M11,X0_M11,X2_M11,X1_M11
2024-01-05 00:00:00,SystemResetWarning,0824.4,5.02,000.00,019.2,018.6,000.0,027.5,020.4,16.1,0002.2,0018.88,0011.50,0010.79
2024-01-05 00:01:00,SystemResetWarning,0824.3,5.01,000.00,019.2,018.6,000.0,027.5,020.4,16.1,0002.0,0018.08,0011.46,0010.75
2024-01-05 00:02:00,SystemResetWarning,0824.4,5.00,000.00,019.2,018.6,000.0,027.5,020.4,16.1,0002.1,0016.72,0011.42,0010.73
2024-01-05 00:03:00,SystemResetWarning,0824.4,4.98,000.00,019.2,018.6,000.0,027.5,020.4,16.0,0002.2,0016.58,0011.41,0010.70
2024-01-05 00:04:00,SystemResetWarning,0824.4,5.00,000.00,019.2,018.6,000.0,027.5,020.4,16.0,0002.3,0016.82,0011.39,0010.68
2024-01-05 00:05:00,SystemResetWarning,0824.4,5.00,000.00,019.2,018.6,000.0,027.5,020.4,15.9,0002.1,0018.47,0011.42,0010.65
2024-01-05 00:06:00,SystemResetWarning,0824.3,5.01,000.00,019.2,018.6,000.0,027.5,020.4,15.8,0002.1,0018.42,0011.42,0010.60
2024-01-05 00:07:00,SystemResetWarning,0824.4,5.01,000.00,019.2,018.6,000.0,027.5,020.4,15.7,0001.7,0017.85,0011.41,0010.57
2024-01-05 00:08:00,SystemResetWarning,0824.4,4.98,000.00,019.2,018.6,000.0,027.5,020.4,15.7,0001.4,0018.15,0011.35,0010.55
2024-01-05 00:09:00,SystemResetWarning,0824.4,4.99,000.00,019.2,018.6,000.0,027.5,020.5,15.7,0001.6,0018.12,0011.31,0010.53
2024-01-05 00:10:00,SystemResetWarning,0824.4,5.01,000.00,019.2,018.6,000.0,027.5,020.5,15.6,0001.6,0018.21,0011.30,0010.51
2024-01-05 00:11:00,SystemResetWarning,0824.4,5.00,000.00,019.2,018.6,000.0,027.5,020.4,15.6,0001.5,0018.17,0011.29,0010.50
2024-01-05 00:12:00,SystemResetWarning,0824.4,5.01,000.00,019.2,018.6,000.0,027.5,020.4,15.5,0001.4,0018.52,0011.31,0010.50
2024-01-05 00:13:00,SystemResetWarning,0824.5,5.00,000.00,019.2,018.6,000.0,027.5,020.4,15.5,0001.3,0018.73,0011.31,0010.50
2024-01-05 00:14:00,SystemResetWarning,0824.5,5.00,000.00,019.2,018.6,000.0,027.5,020.4,15.5,0001.4,0018.74,0011.32,0010.51
2024-01-05 00:15:00,SystemResetWarning,0824.6,4.99,000.00,019.2,018.6,000.0,027.5,020.4,15.5,0001.4,0018.96,0011.40,0010.55
2024-01-05 00:16:00,SystemResetWarning,0824.6,4.99,000.00,019.2,018.6,000.0,027.5,020.4,15.5,0001.4,0018.30,0011.37,0010.57
2024-01-05 00:17:00,SystemResetWarning,0824.6,5.01,000.00,019.2,018.6,000.0,027.5,020.4,15.4,0001.4,0018.76,0011.36,0010.58
2024-01-05 00:18:00,SystemResetWarning,0824.6,5.01,000.00,019.2,018.6,000.0,027.5,020.4,15.4,0001.5,0018.75,0011.35,0010.57
2024-01-05 00:19:00,SystemResetWarning,0824.7,5.01,000.00,019.2,018.6,000.0,027.5,020.4,15.3,0001.7,0018.38,0011.34,0010.53
2024-01-05 00:20:00,SystemResetWarning,0824.7,5.01,000.00,019.2,018.7,000.0,027.5,020.4,15.3,0001.5,0018.63,0011.35,0010.51
2024-01-05 00:21:00,SystemResetWarning,0824.7,5.00,000.00,019.2,018.7,000.0,027.5,020.5,15.3,0001.5,0019.10,0011.32,0010.49
2024-01-05 00:22:00,SystemResetWarning,0824.7,5.00,000.00,019.2,018.7,000.0,027.5,020.5,15.3,0001.6,0019.20,0011.31,0010.49
2024-01-05 00:23:00,SystemResetWarning,0824.7,4.99,000.00,019.2,018.7,000.0,027.5,020.4,15.3,0001.6,0019.13,0011.28,0010.47
2024-01-05 00:24:00,SystemResetWarning,0824.7,5.00,000.00,019.2,018.7,000.0,027.5,020.4,15.3,0002.0,0019.17,0011.25,0010.45
2024-01-05 00:25:00,SystemResetWarning,0824.7,5.00,000.00,019.2,018.7,000.0,027.5,020.5,15.3,0001.9,0019.24,0011.23,0010.43
2024-01-05 00:26:00,SystemResetWarning,0824.7,5.00,000.00,019.2,018.7,000.0,027.5,020.5,15.3,0001.5,0018.98,0011.16,0010.38
2024-01-05 00:27:00,SystemResetWarning,0824.7,5.00,000.00,019.2,018.7,000.0,027.5,020.5,15.3,0001.5,0017.96,0011.08,0010.33
2024-01-05 00:28:00,SystemResetWarning,0824.7,5.00,000.00,019.2,018.7,000.0,027.5,020.5,15.3,0001.6,0017.12,0011.01,0010.29
2024-01-05 00:29:00,SystemResetWarning,0824.7,5.00,000.00,019.2,018.7,000.0,027.5,020.5,15.4,0001.8,0017.94,0010.98,0010.27
2024-01-05 00:30:00,SystemResetWarning,0824.7,5.00,000.00,019.2,018.7,000.0,027.6,020.5,15.3,0001.8,0018.36,0011.01,0010.29
2024-01-05 00:31:00,SystemResetWarning,0824.7,5.01,000.00,019.2,018.7,000.0,027.6,020.5,15.3,0001.9,0017.95,0010.95,0010.28
2024-01-05 00:32:00,SystemResetWarning,0824.7,5.01,000.00,019.2,018.7,000.0,027.6,020.5,15.3,0002.0,0017.36,0010.92,0010.28
2024-01-05 00:33:00,SystemResetWarning,0824.7,5.00,000.00,019.3,018.7,000.0,027.6,020.5,15.3,0001.9,0017.30,0010.93,0010.26
2024-01-05 00:34:00,SystemResetWarning,0824.7,5.00,000.00,019.2,018.7,000.0,027.6,020.5,15.4,0002.0,0017.06,0010.92,0010.28
2024-01-05 00:35:00,SystemResetWarning,0824.7,4.99,000.00,019.3,018.7,000.0,027.6,020.5,15.4,0002.0,0016.56,0010.91,0010.28
2024-01-05 00:36:00,SystemResetWarning,0824.7,4.99,000.00,019.3,018.7,000.0,027.6,020.6,15.4,0002.0,0016.68,0010.91,0010.27
2024-01-05 00:37:00,SystemResetWarning,0824.7,5.00,000.00,019.3,018.7,000.0,027.6,020.6,15.5,0002.1,0017.20,0010.92,0010.29
2024-01-05 00:38:00,SystemResetWarning,0824.7,4.99,000.00,019.3,018.7,000.0,027.6,020.6,15.5,0002.1,0017.36,0010.98,0010.32
2024-01-05 00:39:00,SystemResetWarning,0824.7,5.00,000.00,019.3,018.7,000.0,027.6,020.6,15.5,0001.9,0017.66,0011.00,0010.34
2024-01-05 00:40:00,SystemResetWarning,0824.7,4.99,000.00,019.3,018.7,000.0,027.6,020.6,15.5,0001.9,0017.19,0011.05,0010.34
2024-01-05 00:41:00,SystemResetWarning,0824.7,5.00,000.00,019.3,018.8,000.0,027.6,020.6,15.5,0001.7,0016.86,0011.02,0010.33
2024-01-05 00:42:00,SystemResetWarning,0824.7,5.00,000.00,019.3,018.8,000.0,027.6,020.6,15.5,0001.6,0017.38,0011.07,0010.35
2024-01-05 00:43:00,SystemResetWarning,0824.7,5.00,000.00,019.3,018.7,000.0,027.6,020.6,15.4,0001.5,0018.15,0011.11,0010.35
2024-01-05 00:44:00,SystemResetWarning,0824.7,5.00,000.00,019.3,018.7,000.0,027.6,020.6,15.4,0001.8,0019.15,0011.11,0010.34
2024-01-05 00:45:00,SystemResetWarning,0824.7,5.00,000.00,019.3,018.8,000.0,027.6,020.6,15.4,0001.9,0019.51,0011.15,0010.33
2024-01-05 00:46:00,SystemResetWarning,0824.7,5.00,000.00,019.3,018.7,000.0,027.6,020.6,15.4,0001.8,0019.48,0011.15,0010.31
2024-01-05 00:47:00,SystemResetWarning,0824.7,4.99,000.00,019.3,018.7,000.0,027.6,020.6,15.4,0001.8,0019.28,0011.14,0010.30
2024-01-05 00:48:00,SystemResetWarning,0824.7,4.99,000.00,019.3,018.7,000.0,027.6,020.6,15.5,0001.8,0019.11,0011.18,0010.30
2024-01-05 00:49:00,SystemResetWarning,0824.8,4.99,000.00,019.3,018.7,000.0,027.6,020.6,15.6,0001.9,0019.17,0011.18,0010.28
2024-01-05 00:50:00,SystemResetWarning,0824.8,5.01,000.00,019.3,018.7,000.0,027.6,020.6,15.6,0002.0,0019.29,0011.24,0010.28
2024-01-05 00:51:00,SystemResetWarning,0824.8,5.01,000.00,019.3,018.7,000.0,027.6,020.6,15.6,0002.0,0019.11,0011.20,0010.26
2024-01-05 00:52:00,SystemResetWarning,0824.8,5.01,000.00,019.3,018.7,000.0,027.6,020.6,15.6,0002.0,0018.94,0011.16,0010.25
2024-01-05 00:53:00,SystemResetWarning,0824.9,5.00,000.00,019.3,018.7,000.0,027.6,020.6,15.6,0002.2,0018.55,0011.14,0010.24
2024-01-05 00:54:00,SystemResetWarning,0824.8,4.99,000.00,019.3,018.7,000.0,027.6,020.6,15.7,0002.1,0017.84,0011.12,0010.22
2024-01-05 00:55:00,SystemResetWarning,0824.9,5.00,000.00,019.3,018.7,000.0,027.6,020.6,15.7,0001.9,0016.77,0011.11,0010.23
2024-01-05 00:56:00,SystemResetWarning,0824.9,5.00,000.00,019.3,018.7,000.0,027.6,020.6,15.7,0001.6,0016.95,0011.07,0010.22
2024-01-05 00:57:00,SystemResetWarning,0824.9,5.00,000.00,019.3,018.7,000.0,027.6,020.6,15.8,0001.5,0018.10,0011.05,0010.22
2024-01-05 00:58:00,SystemResetWarning,0824.9,4.99,000.00,019.3,018.8,000.0,027.6,020.6,15.8,0001.5,0018.37,0011.09,0010.23
2024-01-05 00:59:00,SystemResetWarning,0824.9,5.01,000.00,019.3,018.8,000.0,027.7,020.6,15.9,0001.7,0018.03,0011.03,0010.21
